Regional Weather Roundup
Issued by NWS

Home | Current Version | Previous Version | Graphics & Text | Print | Product List | Glossary On
Versions: 1 2 3 4 5 6 7 8 9 10 11 12 13 14 15 16 17 18 19 20 21 22 23 24 25 26 27 28 29 30 31 32 33 34 35 36 37 38 39 40 41 42 43 44 45 46 47 48 49 50
253
ASUS44 KLIX 300901
RWRLA
LOUISIANA WEATHER ROUNDUP
NATIONAL WEATHER SERVICE NEW ORLEANS LA
400 AM CDT WED JUL 30 2014

NOTE: "FAIR" INDICATES FEW OR NO CLOUDS BELOW 12,000 FEET WITH NO
      SIGNIFICANT WEATHER AND/OR OBSTRUCTIONS TO VISIBILITY.
      SKY/WX - SKY CONDITION AND SIGNIFICANT WEATHER.
      TMP - AIR TEMPERATURE.    DP   - DEWPOINT TEMPERATURE.
      RH  - RELATIVE HUMIDITY.  PRES - PRESSURE.
      HX  - HEAT INDEX.         WCI  - WIND CHILL INDEX.

*  THESE STATIONS ARE NOT NWS OR FAA STATIONS AND ARE NOT UNDER
   NWS QUALITY CONTROL.

LAZ040-048-061>063-065-066-069-301000-
SOUTHEAST LOUISIANA

CITY           SKY/WX    TMP DP  RH WIND       PRES   REMARKS
N.O. AUDUBON     N/A     78  66  65 MISG        N/A
N.O. INTL ARPT PTCLDY    77  66  68 NE13      30.03S
N.O. LAKEFRONT CLEAR     78  68  71 NE17      30.03S
N.O. DOWNTOWN* FAIR      77  63  61 N3        30.04R
SLIDELL        CLEAR     68  65  90 N3        30.03S
BATON ROUGE    MOCLDY    70  64  81 NE5       30.06R
BOOTHVILLE     PTCLDY    81  71  71 NE8G17    30.01F
BELLE CHASSE   CLEAR     74  65  73 NE6       30.02F
BOGALUSA*      FAIR      65  62  87 N3        30.07S
GALLIANO*      NOT AVBL
NEW ROADS*     FAIR      70  62  75 NE5       30.07R
GONZALES*      FAIR      70  69  95 CALM      30.05S
HAMMOND*       CLEAR     70  61  73 N5        30.07R
HOUMA*         CLEAR     72  66  82 N3        30.03S
PORT FOURCHON* SUNNY     81  72  74 NE8       30.03S

$$

LAZ041-044-053-054-301000-
SOUTHWEST LOUISIANA

CITY           SKY/WX    TMP DP  RH WIND       PRES   REMARKS
LAKE CHARLES   CLEAR     73  69  87 NE5       30.04S
LAFAYETTE      CLOUDY    72  69  90 N5        30.06S
PATTERSON      CLEAR     72  68  88 NE6       30.08R
SALT POINT       N/A     76  71  85 CALM      30.03S
NEW IBERIA     CLEAR     75  68  78 NE6       30.06S
CHENAULT AIRPK PTCLDY    74  68  80 NE6       30.06S

$$

LAZ027-028-301000-
CENTRAL LOUISIANA

CITY           SKY/WX    TMP DP  RH WIND       PRES   REMARKS
FORT POLK      PTCLDY    72  66  81 E6        30.07S
ALEXANDRIA INT CLEAR     72  64  76 E6        30.06S
ALEXANDRIA     CLEAR     67  64  90 CALM      30.07F

$$

LAZ001-002-301000-
NORTHWEST LOUISIANA

CITY           SKY/WX    TMP DP  RH WIND       PRES   REMARKS
SHREVEPORT     PTCLDY    72  64  76 SE5       30.06S
BARKSDALE AFB  CLEAR     69  63  82 SE3       30.07S
DTN SHREVEPORT CLEAR     72  62  71 SE3       30.07S

$$

LAZ014-016-301000-
NORTHEAST LOUISIANA

CITY           SKY/WX    TMP DP  RH WIND       PRES   REMARKS
MONROE         CLEAR     64  61  90 CALM      30.09S
TALLULAH       CLEAR     60  58  92 CALM      30.08F

$$




USA.gov is the U.S. government's official web portal to all federal, state and local government web resources and services.